Date String (YYYY-MM-DD hh:mm:ss) UTC,Instrument flags,absolute air pressure of the measurement (hPa),sample flow rate (lpm),inlet stack bypass flow (lpm),air temperature of the measurement (°C),ambient temperature measured by the external sensor (°C),aerosol sample conditioner tube jacket temperature (°C),OPC LED temperature (°C),internal box temperature (°C),relative humidity of the measurement (%),span deviation,mass concentration of particles derived from Lorenz-Mie calculation of OPC scattering (μg/m³),mass concentration of particles derived from Lorenz-Mie calculation of OPC scattering (μg/m³),mass concentration of particles derived from Lorenz-Mie calculation of OPC scattering (μg/m³)
DateTimeUTC,F1_M11,P_M11,Q1_M11,Q2_M11,T1_M11,T2_M11,T3_M11,T4_M11,T5_M11,U1_M11,ZSPAN_M11,X2_M11,X0_M11,X1_M11
2023-11-18 23:00:00,SystemResetWarning,0825.9,5.01,000.00,025.7,022.7,000.0,034.0,026.6,14.4,0003.0,0006.78,0016.43,0005.94
2023-11-18 23:01:00,SystemResetWarning,0825.9,4.99,000.00,025.6,023.1,000.0,034.0,026.6,14.5,0002.9,0006.78,0016.65,0005.98
2023-11-18 23:02:00,SystemResetWarning,0826.0,4.99,000.00,025.6,023.4,000.0,033.9,026.8,14.5,0003.1,0006.77,0016.91,0005.99
2023-11-18 23:03:00,SystemResetWarning,0825.9,5.00,000.00,025.6,023.7,000.0,033.9,026.9,14.4,0003.0,0006.74,0016.91,0005.99
2023-11-18 23:04:00,SystemResetWarning,0825.9,5.00,000.00,025.6,024.0,000.0,033.9,027.0,14.5,0002.8,0006.72,0016.67,0005.98
2023-11-18 23:05:00,SystemResetWarning,0825.9,5.00,000.00,025.6,024.2,000.0,033.9,027.1,14.6,0002.8,0006.70,0016.16,0005.96
2023-11-18 23:06:00,SystemResetWarning,0825.9,5.00,000.00,025.7,024.4,000.0,033.9,027.1,14.5,0002.8,0006.60,0016.18,0005.88
2023-11-18 23:07:00,SystemResetWarning,0825.8,5.00,000.00,025.7,024.5,000.0,033.9,027.2,14.4,0003.1,0006.56,0016.71,0005.82
2023-11-18 23:08:00,SystemResetWarning,0825.8,4.99,000.00,025.7,024.6,000.0,033.9,027.2,14.3,0003.3,0006.55,0017.21,0005.77
2023-11-18 23:09:00,SystemResetWarning,0825.8,5.00,000.00,025.8,024.7,000.0,033.9,027.3,14.3,0003.0,0006.53,0017.55,0005.73
2023-11-18 23:10:00,SystemResetWarning,0825.8,4.99,000.00,025.8,024.8,000.0,033.9,027.3,14.5,0002.7,0006.51,0017.55,0005.70
2023-11-18 23:11:00,SystemResetWarning,0825.8,5.01,000.00,025.8,024.9,000.0,034.0,027.4,14.6,0002.7,0006.50,0017.52,0005.68
2023-11-18 23:12:00,SystemResetWarning,0825.8,5.00,000.00,025.9,025.0,000.0,034.0,027.4,14.5,0003.1,0006.53,0017.56,0005.66
2023-11-18 23:13:00,SystemResetWarning,0825.7,5.00,000.00,025.9,025.1,000.0,034.0,027.4,14.5,0003.2,0006.55,0017.02,0005.63
2023-11-18 23:14:00,SystemResetWarning,0825.7,5.00,000.00,025.9,025.1,000.0,034.0,027.5,14.4,0003.6,0006.54,0017.24,0005.62
2023-11-18 23:15:00,SystemResetWarning,0825.6,5.00,000.00,026.0,025.2,000.0,034.1,027.5,14.4,0004.2,0006.53,0017.21,0005.60
2023-11-18 23:16:00,SystemResetWarning,0825.6,4.99,000.00,026.0,025.2,000.0,034.1,027.5,14.4,0004.6,0006.50,0016.64,0005.58
2023-11-18 23:17:00,SystemResetWarning,0825.6,4.98,000.00,026.0,025.3,000.0,034.1,027.6,14.6,0004.9,0006.57,0016.50,0005.61
2023-11-18 23:18:00,SystemResetWarning,0825.6,5.00,000.00,026.1,025.3,000.0,034.1,027.6,14.4,0004.7,0006.56,0015.60,0005.61
2023-11-18 23:19:00,SystemResetWarning,0825.5,5.00,000.00,026.1,024.8,000.0,034.1,027.6,14.4,0004.3,0006.54,0015.10,0005.61
2023-11-18 23:20:00,SystemResetWarning,0825.4,5.01,000.00,026.0,022.9,000.0,034.1,027.3,14.4,0004.3,0006.47,0013.95,0005.60
2023-11-18 23:21:00,SystemResetWarning,0825.4,5.01,000.00,025.9,022.2,000.0,034.1,027.1,14.5,0004.4,0006.46,0013.56,0005.59
2023-11-18 23:22:00,SystemResetWarning,0825.4,5.01,000.00,025.7,022.4,000.0,034.0,026.6,14.8,0004.7,0006.45,0013.68,0005.59
2023-11-18 23:23:00,SystemResetWarning,0825.4,4.99,000.00,025.6,022.8,000.0,034.0,026.6,15.0,0004.6,0006.42,0012.88,0005.58
2023-11-18 23:24:00,SystemResetWarning,0825.4,5.01,000.00,025.6,023.2,000.0,034.0,026.7,15.0,0004.3,0006.40,0012.73,0005.60
2023-11-18 23:25:00,SystemResetWarning,0825.4,5.00,000.00,025.6,023.5,000.0,033.9,026.8,15.1,0004.1,0006.39,0012.84,0005.62
2023-11-18 23:26:00,SystemResetWarning,0825.4,5.00,000.00,025.6,023.8,000.0,033.9,026.9,15.1,0004.1,0006.38,0013.38,0005.64
2023-11-18 23:27:00,SystemResetWarning,0825.4,5.00,000.00,025.6,024.0,000.0,033.9,027.0,15.1,0003.7,0006.43,0014.44,0005.65
2023-11-18 23:28:00,SystemResetWarning,0825.3,5.00,000.00,025.6,024.2,000.0,033.9,027.1,15.1,0003.7,0006.47,0015.40,0005.68
2023-11-18 23:29:00,SystemResetWarning,0825.3,5.01,000.00,025.7,024.4,000.0,033.9,027.1,15.1,0003.6,0006.56,0016.58,0005.73
2023-11-18 23:30:00,SystemResetWarning,0825.3,5.00,000.00,025.7,024.6,000.0,033.9,027.2,15.1,0003.7,0006.63,0018.02,0005.76
2023-11-18 23:31:00,SystemResetWarning,0825.3,4.99,000.00,025.7,024.7,000.0,033.9,027.2,15.1,0003.9,0006.78,0019.61,0005.80
2023-11-18 23:32:00,SystemResetWarning,0825.2,5.00,000.00,025.8,024.8,000.0,033.9,027.3,15.0,0003.9,0006.85,0021.15,0005.84
2023-11-18 23:33:00,SystemResetWarning,0825.2,4.99,000.00,025.8,024.9,000.0,033.9,027.3,15.0,0003.9,0006.87,0021.96,0005.87
2023-11-18 23:34:00,SystemResetWarning,0825.2,5.00,000.00,025.8,024.9,000.0,034.0,027.4,15.0,0004.0,0006.90,0023.20,0005.90
2023-11-18 23:35:00,SystemResetWarning,0825.2,5.01,000.00,025.9,025.0,000.0,034.0,027.4,15.0,0004.2,0006.96,0023.70,0005.90
2023-11-18 23:36:00,SystemResetWarning,0825.2,5.00,000.00,025.9,025.1,000.0,034.0,027.4,14.9,0004.2,0007.07,0023.92,0005.92
2023-11-18 23:37:00,SystemResetWarning,0825.2,5.01,000.00,025.9,025.1,000.0,034.0,027.4,14.9,0004.1,0007.16,0023.73,0005.96
2023-11-18 23:38:00,SystemResetWarning,0825.2,4.99,000.00,025.9,025.1,000.0,034.0,027.5,14.9,0004.0,0007.21,0024.31,0005.97
2023-11-18 23:39:00,SystemResetWarning,0825.2,4.99,000.00,026.0,025.2,000.0,034.1,027.5,14.8,0004.0,0007.22,0024.39,0005.96
2023-11-18 23:40:00,SystemResetWarning,0825.3,5.00,000.00,026.0,025.2,000.0,034.1,027.5,14.9,0003.9,0007.22,0023.82,0005.94
2023-11-18 23:41:00,SystemResetWarning,0825.2,5.00,000.00,026.0,025.3,000.0,034.1,027.5,14.9,0003.8,0007.19,0022.63,0005.92
2023-11-18 23:42:00,SystemResetWarning,0825.3,5.00,000.00,026.1,025.3,000.0,034.1,027.6,14.9,0003.9,0007.14,0022.75,0005.90
2023-11-18 23:43:00,SystemResetWarning,0825.3,5.00,000.00,026.1,025.3,000.0,034.2,027.6,14.9,0004.0,0007.12,0021.72,0005.87
2023-11-18 23:44:00,SystemResetWarning,0825.3,5.01,000.00,026.1,025.4,000.0,034.2,027.6,14.9,0003.6,0007.14,0021.04,0005.86
2023-11-18 23:45:00,SystemResetWarning,0825.3,5.00,000.00,026.1,025.0,000.0,034.2,027.6,14.8,0003.5,0007.12,0019.90,0005.84
2023-11-18 23:46:00,SystemResetWarning,0825.3,4.99,000.00,026.0,023.1,000.0,034.2,027.3,14.8,0003.5,0007.12,0019.68,0005.81
2023-11-18 23:47:00,SystemResetWarning,0825.2,5.00,000.00,025.9,022.2,000.0,034.1,027.1,14.9,0003.2,0007.12,0019.61,0005.79
2023-11-18 23:48:00,SystemResetWarning,0825.2,5.01,000.00,025.8,022.3,000.0,034.1,026.7,15.0,0002.9,0007.12,0020.26,0005.76
2023-11-18 23:49:00,SystemResetWarning,0825.3,4.99,000.00,025.6,022.7,000.0,034.0,026.6,15.2,0003.0,0007.15,0021.19,0005.75
2023-11-18 23:50:00,SystemResetWarning,0825.3,4.99,000.00,025.6,023.1,000.0,034.0,026.7,15.3,0003.0,0007.13,0020.98,0005.76
2023-11-18 23:51:00,SystemResetWarning,0825.2,5.00,000.00,025.6,023.5,000.0,034.0,026.8,15.4,0002.6,0007.11,0021.42,0005.75
2023-11-18 23:52:00,SystemResetWarning,0825.3,5.01,000.00,025.6,023.8,000.0,034.0,026.9,15.5,0002.7,0007.14,0021.41,0005.76
2023-11-18 23:53:00,SystemResetWarning,0825.4,5.00,000.00,025.6,024.0,000.0,033.9,027.0,15.4,0002.7,0007.25,0021.89,0005.85
2023-11-18 23:54:00,SystemResetWarning,0825.4,5.00,000.00,025.6,024.2,000.0,033.9,027.0,15.4,0002.9,0007.27,0021.79,0005.93
2023-11-18 23:55:00,SystemResetWarning,0825.4,5.00,000.00,025.7,024.4,000.0,033.9,027.1,15.4,0002.9,0007.32,0022.11,0005.98
2023-11-18 23:56:00,SystemResetWarning,0825.4,5.01,000.00,025.7,024.5,000.0,033.9,027.1,15.4,0002.3,0007.37,0022.58,0006.02
2023-11-18 23:57:00,SystemResetWarning,0825.4,4.99,000.00,025.7,024.6,000.0,033.9,027.2,15.4,0002.0,0007.40,0022.42,0006.05
2023-11-18 23:58:00,SystemResetWarning,0825.5,4.99,000.00,025.7,024.7,000.0,034.0,027.2,15.4,0002.3,0007.40,0022.32,0006.07
2023-11-18 23:59:00,SystemResetWarning,0825.5,4.99,000.00,025.8,024.8,000.0,034.0,027.3,15.3,0002.4,0007.39,0022.62,0006.09
